Date String (YYYY-MM-DD hh:mm:ss) UTC,Instrument flags,Ambient pressure (hPa),Sample flow (lpm),Bypass flow (lpm),Sample temperature (°C),Ambient temperature (°C),ASC tube jacket temperature (°C),LED temperature (°C),Box temperature (°C),Sample RH (%),Span deviation,Mass concentration (μg/m³),Mass concentration (μg/m³),Mass concentration (μg/m³)
DateTimeUTC,F1_M11,P_M11,Q1_M11,Q2_M11,T1_M11,T2_M11,T3_M11,T4_M11,T5_M11,U1_M11,ZSPAN_M11,X0_M11,X2_M11,X1_M11
2022-08-13 11:00:00,,0833.1,5.00,0.00,29.6,28.7,00.0,38.3,31.5,34.1,0000.0,0011.55,0006.18,0005.43
2022-08-13 11:01:00,,0833.2,5.01,0.00,29.6,28.8,00.0,38.3,31.6,34.0,0000.0,0011.62,0006.22,0005.45
2022-08-13 11:02:00,,0833.2,5.00,0.00,29.6,28.8,00.0,38.4,31.6,34.0,0000.0,0011.50,0006.21,0005.45
2022-08-13 11:03:00,,0833.1,5.00,0.00,29.7,28.9,00.0,38.4,31.6,33.9,0000.0,0011.57,0006.22,0005.46
2022-08-13 11:04:00,,0833.1,5.00,0.00,29.7,28.8,00.0,38.4,31.6,33.8,0000.0,0011.65,0006.26,0005.47
2022-08-13 11:05:00,,0833.1,5.00,0.00,29.7,28.1,00.0,38.3,31.4,33.8,0000.0,0011.21,0006.27,0005.49
2022-08-13 11:06:00,,0833.1,4.99,0.00,29.6,27.6,00.0,38.3,31.3,33.9,0000.0,0010.42,0006.25,0005.50
2022-08-13 11:07:00,,0833.2,4.99,0.00,29.5,27.5,00.0,38.3,31.2,34.0,0000.0,0010.54,0006.27,0005.52
2022-08-13 11:08:00,,0833.2,5.01,0.00,29.5,27.6,00.0,38.3,31.2,34.1,0000.0,0010.48,0006.29,0005.54
2022-08-13 11:09:00,,0833.1,4.99,0.00,29.4,27.7,00.0,38.3,31.2,34.2,0000.0,0010.49,0006.32,0005.56
2022-08-13 11:10:00,,0833.2,5.01,0.00,29.4,27.8,00.0,38.3,31.2,34.2,0000.0,0010.26,0006.32,0005.56
2022-08-13 11:11:00,,0833.2,5.00,0.00,29.4,27.9,00.0,38.3,31.3,34.3,0000.0,0010.16,0006.32,0005.57
2022-08-13 11:12:00,,0833.1,5.00,0.00,29.4,28.1,00.0,38.3,31.3,34.2,0000.0,0010.11,0006.32,0005.58
2022-08-13 11:13:00,,0833.2,5.00,0.00,29.5,28.2,00.0,38.3,31.4,34.2,0000.0,0010.26,0006.37,0005.58
2022-08-13 11:14:00,,0833.1,5.00,0.00,29.5,28.3,00.0,38.3,31.4,34.1,0000.0,0010.25,0006.37,0005.59
2022-08-13 11:15:00,,0833.2,5.00,0.00,29.5,28.4,00.0,38.3,31.4,34.1,0000.0,0010.24,0006.37,0005.59
2022-08-13 11:16:00,,0833.2,5.00,0.00,29.5,28.5,00.0,38.3,31.4,34.1,0000.0,0010.65,0006.33,0005.58
2022-08-13 11:17:00,,0833.2,5.00,0.00,29.5,28.6,00.0,38.3,31.5,34.0,0000.0,0011.31,0006.30,0005.58
2022-08-13 11:18:00,,0833.2,5.00,0.00,29.6,28.6,00.0,38.3,31.5,34.0,0000.0,0011.32,0006.30,0005.58
2022-08-13 11:19:00,,0833.1,5.00,0.00,29.6,28.7,00.0,38.3,31.5,33.9,0000.0,0011.35,0006.28,0005.56
2022-08-13 11:20:00,,0833.2,5.00,0.00,29.6,28.7,00.0,38.4,31.6,33.8,0000.0,0011.41,0006.28,0005.54
2022-08-13 11:21:00,,0833.3,5.01,0.00,29.6,28.8,00.0,38.4,31.6,33.8,0000.0,0011.50,0006.30,0005.54
2022-08-13 11:22:00,,0833.3,5.01,0.00,29.7,28.8,00.0,38.4,31.6,33.7,0000.0,0011.53,0006.32,0005.55
2022-08-13 11:23:00,,0833.3,5.00,0.00,29.7,28.5,00.0,38.4,31.5,33.7,0000.0,0011.42,0006.30,0005.54
2022-08-13 11:24:00,,0833.2,5.01,0.00,29.6,27.8,00.0,38.3,31.3,33.7,0000.0,0011.58,0006.30,0005.53
2022-08-13 11:25:00,,0833.2,4.99,0.00,29.6,27.5,00.0,38.3,31.3,33.9,0000.0,0011.74,0006.33,0005.54
2022-08-13 11:26:00,,0833.2,5.01,0.00,29.5,27.5,00.0,38.3,31.2,34.3,0000.0,0012.40,0006.37,0005.55
2022-08-13 11:27:00,,0833.2,4.99,0.00,29.4,27.5,00.0,38.3,31.2,34.2,0000.0,0012.30,0006.42,0005.55
2022-08-13 11:28:00,,0833.2,5.01,0.00,29.4,27.7,00.0,38.3,31.2,34.2,0000.0,0011.68,0006.45,0005.55
2022-08-13 11:29:00,,0833.2,5.00,0.00,29.4,27.8,00.0,38.3,31.2,34.2,0000.0,0011.44,0006.48,0005.54
2022-08-13 11:30:00,,0833.2,5.00,0.00,29.4,27.9,00.0,38.3,31.3,34.2,0000.0,0012.38,0006.50,0005.54
2022-08-13 11:31:00,,0833.2,5.00,0.00,29.4,28.1,00.0,38.3,31.3,34.1,0000.0,0012.33,0006.49,0005.55
2022-08-13 11:32:00,,0833.2,5.00,0.00,29.4,28.2,00.0,38.3,31.3,34.1,0000.0,0013.18,0006.47,0005.55
2022-08-13 11:33:00,,0833.1,5.01,0.00,29.5,28.3,00.0,38.3,31.4,34.1,0000.0,0014.24,0006.43,0005.52
2022-08-13 11:34:00,,0833.2,5.00,0.00,29.5,28.4,00.0,38.3,31.4,34.0,0000.0,0014.23,0006.40,0005.52
2022-08-13 11:35:00,,0833.3,4.99,0.00,29.5,28.5,00.0,38.3,31.4,34.0,0000.0,0013.97,0006.36,0005.51
2022-08-13 11:36:00,,0833.3,5.01,0.00,29.5,28.5,00.0,38.3,31.5,33.9,0000.0,0013.87,0006.33,0005.50
2022-08-13 11:37:00,,0833.3,5.00,0.00,29.6,28.6,00.0,38.3,31.5,33.9,0000.0,0013.18,0006.27,0005.48
2022-08-13 11:38:00,,0833.3,5.01,0.00,29.6,28.7,00.0,38.3,31.5,33.8,0000.0,0012.92,0006.22,0005.46
2022-08-13 11:39:00,,0833.3,5.00,0.00,29.6,28.7,00.0,38.4,31.6,33.8,0000.0,0012.90,0006.21,0005.47
2022-08-13 11:40:00,,0833.3,5.01,0.00,29.6,28.8,00.0,38.4,31.6,33.7,0000.0,0012.90,0006.18,0005.46
2022-08-13 11:41:00,,0833.3,5.00,0.00,29.7,28.8,00.0,38.4,31.6,33.6,0000.0,0012.02,0006.14,0005.45
2022-08-13 11:42:00,,0833.3,5.00,0.00,29.7,28.8,00.0,38.4,31.6,33.6,0000.0,0011.88,0006.17,0005.45
2022-08-13 11:43:00,,0833.3,4.99,0.00,29.7,28.3,00.0,38.4,31.5,33.6,0000.0,0011.23,0006.16,0005.45
2022-08-13 11:44:00,,0833.3,5.01,0.00,29.6,27.7,00.0,38.3,31.3,33.7,0000.0,0010.56,0006.16,0005.47
2022-08-13 11:45:00,,0833.2,4.99,0.00,29.5,27.5,00.0,38.3,31.2,33.8,0000.0,0010.88,0006.20,0005.47
2022-08-13 11:46:00,,0833.2,5.01,0.00,29.5,27.5,00.0,38.3,31.2,34.0,0000.0,0011.12,0006.21,0005.46
2022-08-13 11:47:00,,0833.2,4.98,0.00,29.4,27.6,00.0,38.3,31.2,34.1,0000.0,0011.02,0006.22,0005.46
2022-08-13 11:48:00,,0833.2,5.00,0.00,29.4,27.7,00.0,38.3,31.2,34.2,0000.0,0010.93,0006.20,0005.45
2022-08-13 11:49:00,,0833.3,5.00,0.00,29.4,27.8,00.0,38.3,31.3,34.2,0000.0,0011.42,0006.21,0005.45
2022-08-13 11:50:00,,0833.3,5.00,0.00,29.4,27.9,00.0,38.3,31.3,34.3,0000.0,0011.51,0006.20,0005.43
2022-08-13 11:51:00,,0833.3,5.00,0.00,29.4,28.1,00.0,38.3,31.3,34.6,0000.0,0011.91,0006.18,0005.42
2022-08-13 11:52:00,,0833.3,5.00,0.00,29.4,28.2,00.0,38.3,31.3,34.8,0000.0,0012.09,0006.18,0005.41
2022-08-13 11:53:00,,0833.3,5.01,0.00,29.4,28.3,00.0,38.3,31.4,34.5,0000.0,0012.12,0006.13,0005.39
2022-08-13 11:54:00,,0833.3,5.00,0.00,29.5,28.3,00.0,38.3,31.4,34.3,0000.0,0012.13,0006.14,0005.37
2022-08-13 11:55:00,,0833.3,5.00,0.00,29.5,28.4,00.0,38.3,31.4,34.2,0000.0,0011.67,0006.12,0005.35
2022-08-13 11:56:00,,0833.3,4.99,0.00,29.5,28.5,00.0,38.3,31.4,34.2,0000.0,0011.13,0006.07,0005.33
2022-08-13 11:57:00,,0833.3,5.00,0.00,29.5,28.5,00.0,38.3,31.5,34.1,0000.0,0010.74,0006.05,0005.32
2022-08-13 11:58:00,,0833.3,4.99,0.00,29.5,28.6,00.0,38.3,31.5,34.1,0000.0,0010.80,0006.02,0005.31
2022-08-13 11:59:00,,0833.3,5.00,0.00,29.6,28.6,00.0,38.3,31.5,33.9,0000.0,0011.26,0006.07,0005.32
